Location: Unspecified
(50.1700°N, 6.8600°E)
Time: 15:02:27
(UTC+00:00)

Cosmos 1300 - Pass Details

Date: 24 January 2019
Orbit: 511 x 516 km, 82.5° (Epoch: 17 April)

Event Time Altitude Azimuth Distance (km) Brightness Sun altitude
Rises 05:53:27 0° 182° (S) 2,612 6.4 -13.3°
Reaches altitude 10° 05:55:34 10° 180° (S) 1,732 5.5 -13.0°
Maximum altitude 05:59:20 68° 97° (E) 556 3.0 -12.4°
Drops below altitude 10° 06:03:09 10° 15° (NNE) 1,749 5.4 -11.8°
Sets 06:05:17 0° 13° (NNE) 2,641 6.3 -11.5°
